FW5881 Weather Reports


Display with metric or nautical units.
time (UTC)temp
F
wind
direction
speed
MPH
gust
MPH
rain 1hr
in
rain 24hr
in
rain mn
in
humidity
%
barometer
mb
20260508161903 61 264 2.0 4.0 0.00 0.00 0.00 37 1015.6
20260508160900 60 190 2.0 4.0 0.00 0.00 0.00 42 1015.4
20260508155900 59 149 2.0 4.0 0.00 0.00 0.00 50 1014.8
20260508154856 57 201 2.0 4.0 0.00 0.00 0.00 53 1014.1
20260508153851 55 139 2.0 3.0 0.00 0.00 0.00 53 1013.3
20260508152851 54 196 2.0 4.0 0.00 0.00 0.00 57 1012.6
20260508151850 53 223 2.0 4.0 0.00 0.00 0.00 58 1012.2
20260508150850 53 199 3.0 5.0 0.00 0.00 0.00 56 1012.2
20260508145849 52 196 2.0 5.0 0.00 0.00 0.00 57 1012.1
20260508144849 51 145 2.0 3.0 0.00 0.00 0.00 58 1011.8
20260508143842 50 200 3.0 7.0 0.00 0.00 0.00 57 1011.5
20260508142843 49 121 5.0 10.0 0.00 0.00 0.00 57 1011.2
20260508141841 48 118 5.0 6.0 0.00 0.00 0.00 60 1010.7
20260508140842 47 139 4.0 7.0 0.00 0.00 0.00 62 1009.8
20260508135841 45 107 4.0 7.0 0.00 0.00 0.00 65 1009.2
20260508134839 43 180 4.0 9.0 0.00 0.00 0.00 68 1008.5
20260508133841 43 118 4.0 6.0 0.00 0.00 0.00 68 1008.2
20260508132841 42 180 5.0 10.0 0.00 0.00 0.00 69 1007.6
20260508131835 43 180 5.0 10.0 0.00 0.00 0.00 68 1008.1
20260508125829 41 180 2.0 9.0 0.00 0.00 0.00 71 1007.1
20260508124831 40 180 0.0 2.0 0.00 0.00 0.00 73 1006.4
20260508123832 40 180 1.0 2.0 0.00 0.00 0.00 72 1006.4
20260508122829 40 180 1.0 6.0 0.00 0.00 0.00 73 1006.3
20260508121819 39 180 0.0 1.0 0.00 0.00 0.00 73 1005.9
20260508120748 39 180 1.0 3.0 0.00 0.00 0.00 74 1005.9
20260508115721 39 180 1.0 3.0 0.00 0.00 0.00 73 1005.8
20260508114722 40 180 1.0 4.0 0.00 0.00 0.00 71 1005.8
20260508113723 41 180 2.0 5.0 0.00 0.00 0.00 70 1006.5
20260508111723 42 180 4.0 9.0 0.00 0.00 0.00 69 1006.9
20260508110719 41 180 4.0 11.0 0.00 0.00 0.00 70 1006.8
20260508105658 42 180 6.0 14.0 0.00 0.00 0.00 69 1006.8
20260508104659 42 180 7.0 13.0 0.00 0.00 0.00 68 1007.0
20260508103659 42 180 6.0 13.0 0.00 0.00 0.00 69 1006.9
20260508102649 41 180 5.0 11.0 0.00 0.00 0.00 70 1006.7
20260508101644 42 180 6.0 12.0 0.00 0.00 0.00 70 1006.8
20260508100638 42 180 6.0 12.0 0.00 0.00 0.00 69 1007.0
20260508095638 42 180 8.0 13.0 0.00 0.00 0.00 69 1007.0
20260508094635 42 180 5.0 12.0 0.00 0.00 0.00 70 1006.8
20260508093633 42 180 4.0 9.0 0.00 0.00 0.00 69 1006.8
20260508092633 42 180 2.0 7.0 0.00 0.00 0.00 69 1006.8
20260508091634 42 180 4.0 6.0 0.00 0.00 0.00 69 1006.9
20260508090636 43 180 4.0 8.0 0.00 0.00 0.00 67 1007.3
20260508085626 43 180 4.0 7.0 0.00 0.00 0.00 67 1007.4
20260508084617 44 180 5.0 11.0 0.00 0.00 0.00 66 1007.8
20260508082615 44 180 5.0 9.0 0.00 0.00 0.00 64 1008.1
20260508080608 44 180 7.0 14.0 0.00 0.00 0.00 65 1008.1
20260508075605 44 180 7.0 13.0 0.00 0.00 0.00 65 1008.1
20260508073604 44 180 6.0 11.0 0.00 0.00 0.00 65 1008.2
20260508071603 45 180 6.0 13.0 0.00 0.00 0.00 63 1008.6
20260508070601 46 180 7.0 12.0 0.00 0.00 0.00 62 1008.8
20260508065559 46 180 6.0 12.0 0.00 0.00 0.00 61 1009.2
20260508064557 46 180 2.0 7.0 0.00 0.00 0.00 61 1009.2
20260508063556 47 180 1.0 9.0 0.00 0.00 0.00 58 1009.6
20260508060552 49 180 6.0 12.0 0.00 0.00 0.00 57 1010.2
20260508055544 49 180 5.0 11.0 0.00 0.00 0.00 56 1010.3
20260508054544 49 180 1.0 5.0 0.00 0.00 0.00 54 1010.4
20260508053544 49 180 1.0 3.0 0.00 0.00 0.00 54 1010.3
20260508052540 50 180 2.0 7.0 0.00 0.00 0.00 54 1010.7
20260508051540 51 180 4.0 10.0 0.00 0.00 0.00 52 1011.2
20260508050540 51 180 4.0 10.0 0.00 0.00 0.00 51 1011.2
20260508045537 50 180 3.0 6.0 0.00 0.00 0.00 52 1010.5
20260508044534 49 180 3.0 5.0 0.00 0.00 0.00 55 1010.1
20260508043533 50 180 2.0 5.0 0.00 0.00 0.00 54 1010.4
20260508042530 52 180 2.0 5.0 0.00 0.00 0.00 51 1011.6
20260508041528 53 180 2.0 4.0 0.00 0.00 0.00 48 1011.8
20260508040527 53 180 3.0 6.0 0.00 0.00 0.00 47 1012.0
20260508035514 51 180 2.0 5.0 0.00 0.00 0.00 51 1011.0
20260508034502 51 180 3.0 5.0 0.00 0.00 0.00 53 1010.8
20260508033458 51 180 2.0 5.0 0.00 0.00 0.00 50 1011.0
20260508032458 51 180 2.0 4.0 0.00 0.00 0.00 52 1011.2
20260508031457 53 180 1.0 4.0 0.00 0.00 0.00 51 1011.9
20260508030456 54 52 2.0 4.0 0.00 0.00 0.00 47 1012.0
20260508025455 54 40 4.0 5.0 0.00 0.00 0.00 47 1012.2
20260508023457 58 12 1.0 3.0 0.00 0.00 0.00 43 1013.5
20260508022454 59 333 2.0 5.0 0.00 0.00 0.00 40 1014.2
20260508021455 60 321 5.0 10.0 0.00 0.00 0.00 38 1014.5
20260508020450 61 303 5.0 9.0 0.00 0.00 0.00 37 1014.7
20260508015449 62 328 5.0 10.0 0.00 0.00 0.00 36 1015.0
20260508013448 63 326 7.0 12.0 0.00 0.00 0.00 35 1015.6
20260508012445 64 306 5.0 10.0 0.00 0.00 0.00 36 1015.9
20260508011444 64 315 6.0 12.0 0.00 0.00 0.00 34 1016.0
20260508010443 64 308 8.0 12.0 0.00 0.00 0.00 35 1016.0
20260508005443 64 276 8.0 13.0 0.00 0.00 0.00 34 1016.0
20260508004443 64 280 5.0 14.0 0.00 0.00 0.00 35 1016.4
20260508003439 64 333 3.0 8.0 0.00 0.00 0.00 35 1016.5
20260508002440 63 341 3.0 6.0 0.00 0.00 0.00 40 1016.0
20260508001435 62 318 4.0 10.0 0.00 0.00 0.00 39 1015.6
20260508000434 61 343 7.0 11.0 0.00 0.00 0.00 39 1015.6
20260507235434 61 325 6.0 11.0 0.00 0.00 0.00 39 1015.5
20260507233429 61 305 10.0 16.0 0.00 0.00 0.00 38 1016.0
20260507232428 61 333 13.0 18.0 0.00 0.00 0.00 38 1016.1
20260507231427 62 299 12.0 21.0 0.00 0.00 0.00 40 1016.5
20260507230424 62 287 13.0 21.0 0.00 0.00 0.00 38 1016.7
20260507225425 62 314 9.0 19.0 0.00 0.00 0.00 38 1017.0
20260507224422 63 304 7.0 14.0 0.00 0.00 0.00 36 1017.1
20260507223423 63 315 12.0 17.0 0.00 0.00 0.00 37 1017.2
20260507221417 64 287 13.0 20.0 0.00 0.00 0.00 35 1018.1
20260507220417 65 300 13.0 19.0 0.00 0.00 0.00 39 1018.2
20260507215414 64 328 15.0 26.0 0.00 0.00 0.00 36 1017.8
20260507214414 64 314 12.0 20.0 0.00 0.00 0.00 37 1018.2
20260507213416 65 295 8.0 13.0 0.00 0.00 0.00 40 1018.7
20260507211416 62 285 13.0 23.0 0.00 0.00 0.00 39 1018.1
20260507210415 61 313 9.0 18.0 0.00 0.00 0.00 40 1017.7
20260507205410 61 308 10.0 18.0 0.00 0.00 0.00 38 1017.7
20260507204408 62 317 12.0 18.0 0.00 0.00 0.00 38 1018.3
20260507203410 63 291 12.0 19.0 0.00 0.00 0.00 37 1018.8
20260507202408 62 301 9.0 18.0 0.00 0.00 0.00 38 1018.3
20260507201409 60 312 9.0 15.0 0.00 0.00 0.00 38 1017.7
20260507200408 61 308 7.0 15.0 0.00 0.00 0.00 38 1017.9
20260507195408 60 301 10.0 15.0 0.00 0.00 0.00 37 1017.7
20260507194405 60 326 10.0 15.0 0.00 0.00 0.00 37 1017.9
20260507193405 60 324 7.0 14.0 0.00 0.00 0.00 37 1018.3
20260507191402 60 325 11.0 19.0 0.00 0.00 0.00 36 1018.3
20260507190400 61 304 10.0 15.0 0.00 0.00 0.00 36 1018.8
20260507185358 62 290 5.0 14.0 0.00 0.00 0.00 37 1019.3
20260507184359 62 310 4.0 11.0 0.00 0.00 0.00 35 1019.5
20260507183358 64 160 2.0 5.0 0.00 0.00 0.00 34 1020.1
20260507182401 64 247 3.0 6.0 0.00 0.00 0.00 33 1020.0
20260507181357 64 149 4.0 7.0 0.00 0.00 0.00 34 1020.2
20260507175356 62 175 6.0 11.0 0.00 0.00 0.00 36 1020.0
20260507174350 61 185 6.0 11.0 0.00 0.00 0.00 36 1019.9
20260507173347 61 139 7.0 13.0 0.00 0.00 0.00 36 1019.8
20260507172346 60 191 7.0 13.0 0.00 0.00 0.00 39 1019.4
20260507171344 60 213 7.0 14.0 0.00 0.00 0.00 38 1019.4
20260507170343 61 189 5.0 11.0 0.00 0.00 0.00 39 1020.0
20260507165341 59 175 5.0 11.0 0.00 0.00 0.00 37 1019.5
20260507164341 57 175 5.0 11.0 0.00 0.00 0.00 41 1018.9
20260507163339 57 175 5.0 10.0 0.00 0.00 0.00 42 1019.2
20260507162338 57 208 4.0 11.0 0.00 0.00 0.00 42 1019.2